KC5L-7 Weather Reports


time (UTC)temp
C
wind
direction
speed
KPH
gust
KPH
rain 1hr
cm
rain 24hr
cm
rain mn
cm
humidity
%
barometer
mb
20260507025546 20 21 0.0 4.8 0.00 0.00 0.00 71 1011.2
20260507024546 20 18 0.0 3.2 0.00 0.00 0.00 69 1011.1
20260507023546 20 55 1.6 6.4 0.00 0.00 0.00 69 1011.1
20260507022547 21 52 0.0 4.8 0.00 0.00 0.00 68 1010.9
20260507021546 21 28 0.0 9.7 0.00 0.00 0.00 68 1010.8
20260507020547 21 50 1.6 6.4 0.00 0.00 0.00 68 1010.7
20260507015546 21 61 0.0 6.4 0.00 0.00 0.00 66 1010.4
20260507013546 22 23 1.6 9.7 0.00 0.00 0.00 65 1009.6
20260507012546 22 10 1.6 6.4 0.00 0.00 0.00 65 1009.8
20260507011547 22 36 0.0 4.8 0.00 0.00 0.00 65 1009.6
20260507005546 23 43 0.0 4.8 0.00 0.00 0.00 62 1009.2
20260507004546 23 12 1.6 8.0 0.00 0.00 0.00 62 1008.9
20260507001546 24 44 1.6 8.0 0.00 0.00 0.00 62 1008.7
20260507000546 25 37 1.6 6.4 0.00 0.00 0.00 60 1008.4
20260506235547 25 43 1.6 8.0 0.00 0.00 0.00 59 1008.2
20260506234548 25 46 1.6 4.8 0.00 0.00 0.00 59 1007.9
20260506233547 -17 52 1.6 4.8 0.00 0.00 0.00 100
20260506232621 26 62 1.6 8.0 0.00 0.00 0.00 59 1007.5
20260506231620 26 55 1.6 9.7 0.00 0.00 0.00 59 1007.2
20260506230620 27 64 1.6 6.4 0.00 0.00 0.00 59 1007.0
20260506225620 27 74 1.6 6.4 0.00 0.00 0.00 60 1006.9
20260506224620 27 62 1.6 8.0 0.00 0.00 0.00 61 1006.8
20260506223620 28 53 1.6 8.0 0.00 0.00 0.00 61 1006.7
20260506222620 28 63 1.6 6.4 0.00 0.00 0.00 60 1006.6
20260506221620 28 32 1.6 4.8 0.00 0.00 0.00 62 1006.4
20260506220621 28 35 3.2 8.0 0.00 0.00 0.00 60 1006.3
20260506215620 28 54 1.6 6.4 0.00 0.00 0.00 60 1006.3
20260506214620 28 36 1.6 8.0 0.00 0.00 0.00 59 1006.3
20260506213620 30 58 1.6 6.4 0.00 0.00 0.00 58 1006.0
20260506212620 30 18 0.0 3.2 0.00 0.00 0.00 58 1005.9
20260506211620 30 44 0.0 4.8 0.00 0.00 0.00 58 1005.9
20260506210620 30 322 0.0 3.2 0.00 0.00 0.00 58 1005.9
20260506205620 30 29 0.0 3.2 0.00 0.00 0.00 58 1006.1
20260506204620 30 199 1.6 6.4 0.00 0.00 0.00 59 1006.2
20260506203621 30 310 0.0 3.2 0.00 0.00 0.00 59 1006.4
20260506202621 29 207 1.6 3.2 0.00 0.00 0.00 62 1006.5
20260506201620 29 153 0.0 6.4 0.00 0.00 0.00 60 1006.6
20260506200620 29 67 0.0 4.8 0.00 0.00 0.00 62 1006.8
20260506195620 29 55 0.0 4.8 0.00 0.00 0.00 63 1007.0
20260506194620 29 68 0.0 3.2 0.00 0.00 0.00 64 1007.0
20260506193620 29 182 1.6 8.0 0.00 0.00 0.00 64 1007.1
20260506192620 28 238 1.6 3.2 0.00 0.00 0.00 67 1007.1
20260506191620 28 201 1.6 8.0 0.00 0.00 0.00 68 1007.2
20260506190620 28 185 0.0 3.2 0.00 0.00 0.00 70 1007.3
20260506185620 28 125 0.0 4.8 0.00 0.00 0.00 71 1007.6
20260506183620 27 196 0.0 4.8 0.00 0.00 0.00 71 1007.9
20260506182620 27 49 0.0 4.8 0.00 0.00 0.00 72 1008.0
20260506181620 27 149 0.0 6.4 0.00 0.00 0.00 73 1008.1
20260506180620 27 97 0.0 3.2 0.00 0.00 0.00 74 1008.2
20260506175620 26 139 0.0 3.2 0.00 0.00 0.00 75 1008.3
20260506174620 26 83 0.0 3.2 0.00 0.00 0.00 77 1008.5
20260506173620 26 206 0.0 1.6 0.00 0.00 0.00 79 1008.4
20260506172620 26 71 0.0 1.6 0.00 0.00 0.00 81 1008.6
20260506171620 25 60 0.0 1.6 0.00 0.00 0.00 81 1008.7
20260506170620 25 60 0.0 1.6 0.00 0.00 0.00 82 1008.7
20260506165621 25 334 0.0 1.6 0.00 0.00 0.00 82 1008.8
20260506164620 25 64 0.0 3.2 0.00 0.00 0.00 82 1008.8
20260506163621 25 37 0.0 1.6 0.00 0.00 0.00 85 1008.7
20260506162621 25 52 0.0 3.2 0.00 0.00 0.00 85 1008.7
20260506161620 25 35 0.0 3.2 0.00 0.00 0.00 88 1008.6
20260506160620 25 168 0.0 0.0 0.00 0.00 0.00 88 1008.5
20260506155620 24 0 0.0 0.0 0.00 0.00 0.00 88 1008.6
20260506154620 24 223 0.0 0.0 0.00 0.00 0.00 88 1008.6
20260506153620 24 250 0.0 0.0 0.00 0.00 0.00 88 1008.4
20260506152620 24 0 0.0 0.0 0.00 0.00 0.00 86 1008.3
20260506151620 24 0 0.0 0.0 0.00 0.00 0.00 85 1008.1
20260506150621 24 0 0.0 0.0 0.00 0.00 0.00 86 1008.1
20260506145620 24 57 0.0 3.2 0.00 0.00 0.00 86 1007.9
20260506144620 24 0 0.0 0.0 0.00 0.00 0.00 86 1008.0
20260506143620 24 0 0.0 0.0 0.00 0.00 0.00 86 1007.8
20260506142620 24 66 0.0 3.2 0.00 0.00 0.00 86 1007.6
20260506141620 24 193 0.0 3.2 0.00 0.00 0.00 86 1007.5
20260506140903 24 64 0.0 1.6 0.00 0.00 0.00 86 1007.3
20260506140620 24 64 0.0 1.6 0.00 0.00 0.00 86 1007.3
20260506135620 24 133 0.0 3.2 0.00 0.00 0.00 86 1007.2
20260506134620 24 193 0.0 6.4 0.00 0.00 0.00 86 1006.8
20260506133620 23 191 0.0 3.2 0.00 0.00 0.00 88 1006.8
20260506132620 23 208 0.0 6.4 0.00 0.00 0.00 88 1006.8
20260506130620 23 195 0.0 3.2 0.00 0.00 0.00 88 1006.5
20260506125620 23 178 0.0 9.7 0.00 0.00 0.00 89 1006.5
20260506124620 23 195 0.0 4.8 0.00 0.00 0.00 89 1006.4
20260506122620 23 182 0.0 6.4 0.00 0.00 0.00 89 1006.4
20260506120621 23 187 0.0 8.0 0.00 0.00 0.00 88 1006.4
20260506115620 23 226 0.0 1.6 0.00 0.00 0.00 88 1006.4
20260506114620 23 187 0.0 4.8 0.00 0.00 0.00 88 1006.4
20260506113620 23 213 0.0 3.2 0.00 0.00 0.00 88 1006.4
20260506112620 23 200 0.0 1.6 0.00 0.00 0.00 88 1006.4
20260506110620 23 188 1.6 4.8 0.00 0.00 0.00 88 1006.4
20260506105620 24 196 0.0 4.8 0.00 0.00 0.00 87 1006.3
20260506104620 24 203 0.0 1.6 0.00 0.00 0.00 86 1006.2
20260506102620 24 189 0.0 4.8 0.00 0.00 0.00 86 1006.2
20260506101621 24 201 0.0 1.6 0.00 0.00 0.00 86 1006.1
20260506100620 24 188 1.6 9.7 0.00 0.00 0.00 86 1006.1
20260506094620 24 211 0.0 4.8 0.00 0.00 0.00 86 1006.1
20260506093620 24 187 1.6 9.7 0.00 0.00 0.00 86 1006.1
20260506092620 24 193 1.6 12.9 0.00 0.00 0.00 86 1006.1
20260506090620 24 190 1.6 9.7 0.00 0.00 0.00 86 1006.1
20260506084620 24 195 1.6 6.4 0.00 0.00 0.00 85 1006.2
20260506083620 24 185 1.6 8.0 0.00 0.00 0.00 85 1006.2
20260506082620 24 191 0.0 9.7 0.00 0.00 0.00 85 1006.3
20260506080620 24 198 1.6 8.0 0.00 0.00 0.00 85 1006.3
20260506072620 25 205 0.0 6.4 0.00 0.00 0.00 85 1006.4
20260506071621 25 177 0.0 8.0 0.00 0.00 0.00 85 1006.4
20260506060620 25 188 0.0 4.8 0.00 0.00 0.00 84 1006.4
20260506044620 25 178 0.0 1.6 0.00 0.00 0.00 81 1006.1
20260506043620 26 211 0.0 8.0 0.00 0.00 0.00 81 1006.1
20260506042620 26 114 0.0 1.6 0.00 0.00 0.00 81 1006.0
20260506040620 26 198 1.6 11.3 0.00 0.00 0.00 79 1005.8
20260506035620 26 190 1.6 12.9 0.00 0.00 0.00 78 1005.6
20260506034621 26 186 1.6 8.0 0.00 0.00 0.00 78 1005.5
20260506033620 26 205 0.0 4.8 0.00 0.00 0.00 78 1005.3
20260506032620 26 191 0.0 9.7 0.00 0.00 0.00 76 1005.2
20260506030620 27 191 0.0 6.4 0.00 0.00 0.00 75 1005.1